Location: Eurasberg
(48.3353°N, 11.0839°E)
Time: 14:56:47
(UTC+00:00)

SJ 16-02 - Pass Details

Date: 18 January 2026
Orbit: 582 x 594 km, 75.0° (Epoch: 18 February)

Event Time Altitude Azimuth Distance (km) Brightness Sun altitude
Rises 05:06:27 0° 170° (S) 2,791 5.0 -18.4°
Reaches altitude 10° 05:08:54 10° 158° (SSE) 1,897 4.3 -18.0°
Maximum altitude 05:12:27 27° 100° (E) 1,145 3.6 -17.4°
Drops below altitude 10° 05:16:01 10° 43° (NE) 1,912 4.3 -16.8°
Sets 05:18:29 0° 31° (NNE) 2,819 5.0 -16.4°
